Effective Sunday, March 17, 2024, the National Weather Service National Data Buoy Center will discontinue its Dial-A-Buoy Interactive Voice Response system. For more information, see Service Change Notice 24-06 (PDF).

Station BDSP1 - 8546252 - Bridesburg, PA Image indicating link to RSS feed of recent meteorological observations for station BDSP1


Conditions at BDSP1 as of
(12:00 am EST)
0500 GMT on 02/25/2024:
     

Click on the graph icon in the table below to see a time series plot of the last five days of that observation.

5-day plot - Atmospheric Pressure Atmospheric Pressure (PRES):30.04 in
5-day plot - Pressure Tendency Pressure Tendency (PTDY):+0.06 in ( Rising )
5-day plot - Air Temperature Air Temperature (ATMP): 28.8 °F
5-day plot - Water Temperature Water Temperature (WTMP): 40.1 °F
NOS Water Level Observation Network Water Level
Previous observations
TIME
(EST)
5-day plot - Wind Direction
WDIR
 
5-day plot - Wind Speed
WSPD
kts
5-day plot - Wind Gust
GST
kts
5-day plot - Wave Height
WVHT
ft
5-day plot - Dominant Wave Period
DPD
sec
5-day plot - Average Wave Period
APD
sec
5-day plot - Mean Wave Direction
MWD
 
5-day plot - Atmospheric Pressure
PRES
in
5-day plot - Pressure Tendency
PTDY
in
5-day plot - Air Temperature
ATMP
°F
5-day plot - Water Temperature
WTMP
°F
5-day plot - Dew Point
DEWP
°F
5-day plot - Salinity
SAL
psu
5-day plot - Visibility
VIS
nmi
5-day plot - Tide (above MLLW)
TIDE
ft
2024-02-24 11:54 pm-------30.03- 28.8 40.1----
2024-02-24 11:48 pm-------30.03-- 40.1----
2024-02-24 11:42 pm-------30.03-- 40.1----
2024-02-24 11:36 pm-------30.03-- 40.1----
2024-02-24 11:30 pm-------30.02- 29.1 40.3----
2024-02-24 11:24 pm-------30.02- 29.1 40.3----
2024-02-24 11:18 pm-------30.02- 29.3 40.3----
2024-02-24 11:12 pm-------30.01- 29.3 40.3----
2024-02-24 11:06 pm-------30.01- 29.5 40.5----
2024-02-24 11:00 pm-------30.01+0.07 29.5 40.5----
2024-02-24 10:54 pm-------30.01- 29.7 40.5----
2024-02-24 10:48 pm-------30.01- 29.7 40.3----
2024-02-24 10:42 pm-------30.01- 29.8 40.5----
2024-02-24 10:36 pm-------30.01- 29.8 40.3----
2024-02-24 10:30 pm-------30.00- 30.0 40.1----
2024-02-24 10:24 pm-------30.00- 30.2 39.9----
2024-02-24 10:18 pm--------- 30.2-----
2024-02-24 10:12 pm--------- 30.4-----
2024-02-24 10:06 pm--------- 30.4-----
2024-02-24 10:00 pm-------29.99+0.09 30.6 40.5----
2024-02-24 09:54 pm-------29.99- 30.7 40.6----
2024-02-24 09:48 pm-------29.99- 30.9 40.3----
2024-02-24 09:42 pm-------29.99- 30.9 40.1----
2024-02-24 09:36 pm-------29.99- 31.1 40.5----
2024-02-24 09:30 pm-------29.99- 31.3 40.6----
2024-02-24 09:24 pm-------29.98- 31.5 40.6----
2024-02-24 09:18 pm-------29.98-- 41.0----
2024-02-24 09:12 pm-------29.98-- 41.2----
2024-02-24 09:06 pm-------29.97-- 41.2----
2024-02-24 09:00 pm-------29.97+0.11- 41.7----
2024-02-24 08:54 pm-------29.97-- 41.9----
2024-02-24 08:48 pm-------29.97-- 42.1----
2024-02-24 08:42 pm-------29.96-- 42.1----
2024-02-24 08:36 pm-------29.96-- 41.7----
2024-02-24 08:30 pm-------29.96- 32.9 41.9----
2024-02-24 08:24 pm-------29.96- 33.1 41.5----
2024-02-24 08:18 pm-------29.95- 33.3 40.6----
2024-02-24 08:12 pm-------29.95- 33.4 40.5----
2024-02-24 08:06 pm-------29.94- 33.6 40.5----
2024-02-24 08:00 pm-------29.94+0.12- 40.5----
2024-02-24 07:54 pm-------29.93-- 40.5----
2024-02-24 07:48 pm-------29.93-- 41.7----
2024-02-24 07:42 pm-------29.93-- 42.8----
2024-02-24 07:36 pm-------29.92-- 43.2----
2024-02-24 07:30 pm-------29.92-- 42.8----
2024-02-24 07:24 pm-------29.92-- 43.2----
2024-02-24 07:18 pm-------29.91- 35.1-----
2024-02-24 07:12 pm-------29.91- 35.4-----
2024-02-24 07:06 pm-------29.91- 35.6-----
2024-02-24 07:00 pm-------29.90+0.12 35.8-----
2024-02-24 06:54 pm-------29.90- 36.0-----
2024-02-24 06:48 pm-------29.89- 36.3 43.2----
2024-02-24 06:42 pm-------29.89- 36.3 43.3----
2024-02-24 06:36 pm-------29.89- 36.5 43.0----
2024-02-24 06:30 pm-------29.88-- 42.6----
2024-02-24 06:24 pm-------29.88-- 43.0----
2024-02-24 06:00 pm-------29.86+0.11 37.2 42.1----
2024-02-24 05:54 pm-------29.85- 37.2 43.7----
2024-02-24 05:48 pm-------29.85- 37.6 43.5----
2024-02-24 05:42 pm-------29.85- 37.8 42.6----
2024-02-24 05:36 pm-------29.84- 37.9 42.8----
2024-02-24 05:30 pm-------29.84- 37.9 43.3----
2024-02-24 05:24 pm-------29.83- 38.3 42.8----
2024-02-24 05:18 pm-------29.83-- 41.9----
2024-02-24 05:12 pm-------29.83-- 42.6----
2024-02-24 05:06 pm-------29.82-- 42.6----
2024-02-24 05:00 pm-------29.82+0.09------
2024-02-24 04:54 pm-------29.81-------
2024-02-24 04:48 pm-------29.81- 39.2-----
2024-02-24 04:42 pm-------29.81- 39.4-----
2024-02-24 04:36 pm-------29.80- 39.2-----
2024-02-24 04:30 pm-------29.80- 39.4 42.8----
2024-02-24 04:24 pm-------29.79- 39.4 42.3----
2024-02-24 04:18 pm-------29.79- 39.9 44.1----
2024-02-24 04:12 pm-------29.78- 39.6 43.5----
2024-02-24 04:06 pm-------29.78- 40.5 43.9----
2024-02-24 04:00 pm-------29.78+0.05 40.5 43.7----
2024-02-24 03:54 pm-------29.78- 40.3 43.5----
2024-02-24 03:48 pm-------29.78-- 43.3----
2024-02-24 03:42 pm-------29.77-- 44.6----
2024-02-24 03:36 pm-------29.77-- 44.4----
2024-02-24 03:30 pm--------- 40.3 44.2----
2024-02-24 03:24 pm--------- 40.8 41.4----
2024-02-24 03:18 pm-------29.76- 41.0 40.8----
2024-02-24 03:12 pm-------29.75- 40.8 42.4----
2024-02-24 03:06 pm-------29.75- 40.8 41.9----
2024-02-24 03:00 pm-------29.75+0.02 40.6 40.6----
2024-02-24 02:54 pm-------29.75- 40.3 40.5----
2024-02-24 02:48 pm-------29.75- 40.6 40.6----
2024-02-24 02:42 pm-------29.75- 41.4 41.2----
2024-02-24 02:36 pm-------29.74- 41.0 41.2----
2024-02-24 02:30 pm-------29.74- 40.5-----
2024-02-24 02:24 pm-------29.74- 40.8-----
2024-02-24 02:18 pm-------29.74- 40.6 40.8----
2024-02-24 02:12 pm-------29.74- 40.5 40.5----
2024-02-24 02:06 pm-------29.74- 40.5 40.3----
2024-02-24 02:00 pm-------29.73+0.01- 40.3----
2024-02-24 01:54 pm-------29.73-- 40.3----
2024-02-24 01:48 pm-------29.73- 40.3 40.3----
2024-02-24 01:42 pm-------29.73- 40.1 40.3----
2024-02-24 01:36 pm-------29.73- 39.7 40.3----
2024-02-24 01:30 pm-------29.73- 40.5 40.3----
2024-02-24 01:24 pm-------29.73- 39.9 40.3----
2024-02-24 01:18 pm-------29.73- 40.5 40.3----
2024-02-24 01:12 pm-------29.73- 40.1 40.3----
2024-02-24 01:06 pm-------29.73- 40.8 40.3----
2024-02-24 01:00 pm-------29.73+0.03- 40.1----
2024-02-24 12:54 pm-------29.73-- 40.1----
2024-02-24 12:48 pm-------29.73-- 40.1----
2024-02-24 12:42 pm-------29.73-- 40.1----
2024-02-24 12:36 pm-------29.73-- 40.1----
2024-02-24 12:30 pm-------29.73- 39.7 40.1----
2024-02-24 12:24 pm-------29.73- 39.2 40.1----
2024-02-24 12:18 pm-------29.74- 39.4 40.1----
2024-02-24 12:12 pm-------29.73- 39.0 40.1----
2024-02-24 12:06 pm-------29.73- 39.4 40.1----
2024-02-24 12:00 pm-------29.73+0.05 39.0 40.1----
2024-02-24 11:54 am-------29.73- 38.7 40.1----
2024-02-24 11:48 am-------29.73-- 40.1----
2024-02-24 11:42 am-------29.73-- 40.1----
2024-02-24 11:36 am-------29.73-- 40.1----
2024-02-24 11:30 am-------29.73-- 40.1----
2024-02-24 11:24 am-------29.72-- 40.1----
2024-02-24 11:18 am--------- 38.7 40.1----
2024-02-24 11:12 am--------- 38.7 40.1----
2024-02-24 11:06 am--------- 38.8 40.1----
2024-02-24 11:00 am-------29.72-- 40.1----
2024-02-24 10:54 am-------29.72-- 40.1----
2024-02-24 10:48 am-------29.71-- 40.1----
2024-02-24 10:42 am-------29.71-- 40.1----
2024-02-24 10:36 am-------29.71-- 40.1----
2024-02-24 10:30 am-------29.71- 39.2 40.1----
2024-02-24 10:24 am-------29.70- 39.6 40.1----
2024-02-24 10:18 am-------29.70- 39.6 40.1----
2024-02-24 10:12 am-------29.70- 39.6 40.1----
2024-02-24 10:06 am-------29.70- 39.6 40.1----
2024-02-24 10:00 am-------29.70+0.07 39.6 40.1----
2024-02-24 09:54 am-------29.70- 39.6 40.1----
2024-02-24 09:48 am-------29.69-- 40.1----
2024-02-24 09:42 am-------29.69-- 40.1----
2024-02-24 09:36 am-------29.69-- 40.1----
2024-02-24 09:30 am-------29.68- 39.9 40.1----
2024-02-24 09:24 am-------29.68- 39.9 40.5----
2024-02-24 09:18 am-------29.68- 39.9 40.3----
2024-02-24 09:12 am-------29.68- 39.7 40.6----
2024-02-24 09:06 am-------29.68- 39.7 40.3----
2024-02-24 09:00 am-------29.68+0.10 39.7 40.6----
2024-02-24 08:54 am-------29.68- 39.6 40.8----
2024-02-24 08:48 am---------- 40.8----
2024-02-24 08:42 am---------- 40.8----
2024-02-24 08:36 am---------- 41.4----
2024-02-24 08:30 am-------29.67-------
2024-02-24 08:24 am-------29.67-------
2024-02-24 08:18 am-------29.66-------
2024-02-24 08:12 am-------29.66-------
2024-02-24 08:06 am-------29.66-------
2024-02-24 08:00 am--------- 39.0 41.7----
2024-02-24 07:54 am--------- 38.8 42.3----
2024-02-24 07:48 am-------29.65- 38.7 42.1----
2024-02-24 07:42 am-------29.64- 38.5 41.9----
2024-02-24 07:36 am-------29.64- 38.3 41.9----
2024-02-24 07:30 am-------29.64-------
2024-02-24 07:24 am-------29.64-------
2024-02-24 07:18 am-------29.64-- 42.3----
2024-02-24 07:12 am-------29.63-- 42.6----
2024-02-24 07:06 am-------29.63-- 42.6----
2024-02-24 07:00 am-------29.63+0.10 39.2 42.4----
2024-02-24 06:54 am-------29.62- 39.6 42.3----
2024-02-24 06:48 am-------29.62-- 42.3----
2024-02-24 06:42 am-------29.61-- 42.3----
2024-02-24 06:36 am-------29.61-- 42.1----
2024-02-24 06:30 am-------29.60- 41.2 42.1----
2024-02-24 06:24 am-------29.60- 41.7 41.9----
2024-02-24 06:18 am-------29.59- 42.1 42.1----
2024-02-24 06:12 am-------29.59- 42.3 42.3----
2024-02-24 06:06 am-------29.58- 42.4 42.3----
2024-02-24 06:00 am-------29.58-- 42.1----
2024-02-24 05:54 am-------29.57-- 42.4----
2024-02-24 05:48 am-------29.57- 42.6 41.9----
2024-02-24 05:42 am-------29.57- 42.8 42.3----
2024-02-24 05:36 am-------29.57- 43.0 42.3----
2024-02-24 05:30 am-------29.57-- 41.9----
2024-02-24 05:24 am-------29.56-- 42.4----
2024-02-24 05:18 am-------29.56- 42.8 42.8----
2024-02-24 05:12 am-------29.55- 42.8 43.3----
2024-02-24 05:06 am-------29.55- 42.8 42.3----
2024-02-24 05:00 am-------29.55+0.04- 40.8----
2024-02-24 04:54 am-------29.55-- 42.3----
2024-02-24 04:48 am-------29.55-- 41.7----
2024-02-24 04:42 am-------29.54-- 43.0----
2024-02-24 04:36 am-------29.54-- 42.6----
2024-02-24 04:30 am-------29.54-- 42.1----
2024-02-24 04:24 am-------29.54-- 41.5----
2024-02-24 04:18 am-------29.54- 43.3 43.5----
2024-02-24 04:12 am-------29.53- 43.5 41.2----
2024-02-24 04:06 am-------29.53- 43.5 40.6----
2024-02-24 04:00 am-------29.53+0.03 43.7 43.0----
2024-02-24 03:54 am-------29.53- 43.7 43.5----
2024-02-24 03:48 am-------29.53- 43.7 41.7----
2024-02-24 03:42 am-------29.53- 43.7 43.7----
2024-02-24 03:36 am-------29.53- 43.9 44.8----
2024-02-24 03:30 am-------29.53-- 42.3----
2024-02-24 03:24 am-------29.53-- 41.0----
2024-02-24 03:18 am-------29.53-- 42.8----
2024-02-24 03:12 am-------29.52-- 41.0----
2024-02-24 03:06 am-------29.52-- 40.8----
2024-02-24 03:00 am---------- 41.4----
2024-02-24 02:54 am---------- 40.8----
2024-02-24 02:48 am-------29.52-- 41.2----
2024-02-24 02:42 am-------29.52-- 40.5----
2024-02-24 02:36 am-------29.52-- 40.3----
2024-02-24 02:30 am-------29.52-------
2024-02-24 02:24 am-------29.52-------
2024-02-24 02:18 am-------29.52- 43.5 40.5----
2024-02-24 02:12 am-------29.52- 43.2 40.3----
2024-02-24 02:06 am-------29.52- 43.0 40.3----
2024-02-24 02:00 am-------29.52+0.02 42.6 40.3----
2024-02-24 01:54 am-------29.52- 42.4 40.3----
2024-02-24 01:48 am-------29.51-- 40.3----
2024-02-24 01:42 am-------29.51-- 40.3----
2024-02-24 01:36 am-------29.51-- 40.3----
2024-02-24 01:30 am-------29.51- 42.6 40.3----
2024-02-24 01:24 am-------29.51- 42.8 40.3----
2024-02-24 01:18 am-------29.51-- 40.3----
2024-02-24 01:12 am-------29.51-- 40.3----
2024-02-24 01:06 am-------29.51-- 40.3----
2024-02-24 01:00 am-------29.50+0.00 42.6 40.3----
2024-02-24 12:54 am-------29.50- 42.4 40.1----
2024-02-24 12:48 am-------29.50-- 40.1----
2024-02-24 12:42 am-------29.50-- 40.1----
2024-02-24 12:36 am-------29.49-- 40.1----
2024-02-24 12:30 am-------29.49- 43.0 40.1----
2024-02-24 12:24 am-------29.50- 43.0 40.1----
2024-02-24 12:18 am-------29.50- 43.0 40.1----
2024-02-24 12:12 am-------29.50- 43.0 40.1----
2024-02-24 12:06 am-------29.49- 43.2 40.1----
2024-02-24 12:00 am-------29.49+0.00- 40.1----
2024-02-23 11:54 pm-------29.49-- 40.1----